Location: Newark
(7.0858°N, 171.3717°E)
Time: 03:59:06
(UTC+00:00)

A-11 Canister half - Pass Details

Date: 11 December 2020
Orbit: 1517 x 1683 km, 47.2° (Epoch: 16 January)

Event Time Altitude Azimuth Distance (km) Brightness Sun altitude
Rises 17:27:53 0° 211° (SSW) 4,654 11.4 -16.6°
Reaches altitude 10° 17:30:58 10° 207° (SSW) 3,672 10.9 -15.9°
Maximum altitude 17:40:01 61° 129° (SE) 1,703 9.5 -13.8°
Drops below altitude 10° 17:49:15 10° 51° (NE) 3,741 11.4 -11.7°
Sets 17:52:24 0° 48° (NE) 4,746 11.9 -11.0°
